Regional Weather Roundup
Issued by NWS

Home | Current Version | Previous Version | Text Only | Print | Product List | Glossary Off
Versions: 1 2 3 4 5 6 7 8 9 10 11 12 13 14 15 16 17 18 19 20 21 22 23 24 25 26 27 28 29 30 31 32 33 34 35 36 37 38 39 40 41 42 43 44 45 46 47 48 49 50

000
ASUS43 KDTX 222101
RWRMI
MICHIGAN HOURLY REGIONAL WEATHER ROUNDUP
NATIONAL WEATHER SERVICE DETROIT/PONTIAC MI
400 PM EST SUN JAN 22 2017

NOTE: "FAIR" INDICATES FEW OR NO CLOUDS BELOW 12,000 FEET WITH NO
SIGNIFICANT WEATHER AND/OR OBSTRUCTION TO VISIBILITY.

MIZ047>049-052>055-059>063-066>070-074>076-081>083-222200-
SOUTHEAST LOWER MICHIGAN

CITY           SKY/WX    TMP DP  RH WIND       PRES   REMARKS
ADRIAN         CLOUDY    53  49  86 NE8       29.58R
ALMA           CLOUDY    42  42  98 NW6       29.63S FOG
ANN ARBOR      CLOUDY    51  49  92 N8        29.60R
BAD AXE        FOG       42  42 100 CALM      29.64S VSB 1/2
CARO           FOG       43  43 100 N5        29.62S VSB<1/4
DETROIT CITY   FOG       45  45 100 E7        29.62R VSB 1/4
DETROIT        FOG       49  48  97 NE6       29.61R VSB 1/16
FLINT          FOG       48  47  96 NE5       29.62R VSB 1/4
GROSSE ILE     FOG       46  46  99 NE9       29.60R VSB 1/4
HILLSDALE      CLOUDY    50  46  87 NE3       29.57R
HOWELL         FOG       48  47  95 NE5       29.60R VSB 1/2

CITY           SKY/WX    TMP DP  RH WIND       PRES   REMARKS
JACKSON        CLOUDY    49  47  93 N6        29.59R FOG
LAMBERTVILLE   CLOUDY    55  48  78 E6        29.57S
LANSING        CLOUDY    42  39  89 N5        29.62R FOG
LAPEER         CLOUDY    47  47  99 CALM      29.62R FOG
MASON          CLOUDY    46  46 100 NE6       29.60R FOG
MONROE         CLOUDY    50  50 100 N10       29.58R FOG
MT. CLEMENS    FOG       45  45 100 CALM      29.60S VSB 1/8
PONTIAC        FOG       48  46  93 E7        29.60R VSB 1/4
PORT HOPE        N/A     38  37  97 SE3       29.63R
PORT HURON     FOG       46  46 100 CALM      29.63R VSB<1/4
TRI CITIES     FOG       41  41 100 E5        29.64R VSB 1/16
MIDLAND        FOG       43  42  97 E3        29.63R VSB 1/2
TROY           FOG       47  46  95 E6        29.64R VSB 1/4
SAGINAW HB     FOG       41  39  93 N7        29.62S VSB 1/4
$$
MIZ043>046-050>051-056>058-064>065-071>073-077>080-222200-
SOUTHWEST LOWER MICHIGAN

CITY           SKY/WX    TMP DP  RH WIND       PRES   REMARKS
BATTLE CREEK   FOG       43  43 100 N7        29.60S VSB 3/4
BENTON HARBOR  CLOUDY    42  40  92 N6        29.61R FOG
BIG RAPIDS     CLOUDY    41  40  97 CALM      29.62S FOG
COLDWATER      CLOUDY    50  50 100 N6        29.58R
FREMONT        CLOUDY    43  43 100 E3        29.63R
HOLLAND        CLOUDY    45  41  86 N5        29.63R
GRAND RAPIDS   CLOUDY    42  39  89 N7        29.62R
IONIA          FOG       41  41  99 N7        29.62R VSB 1/2
KALAMAZOO      FOG       42  39  89 N8        29.61R VSB 3/4
LUDINGTON      CLOUDY    42  41  97 CALM      29.64R FOG
MARSHALL       CLOUDY    46  46  98 N3        29.59R FOG
MOUNT PLEASANT CLOUDY    42  42  99 CALM      29.63R FOG
MUSKEGON       CLOUDY    43  40  89 NW6       29.64R
SOUTH HAVEN    CLOUDY    42  42 100 NE7       29.61S FOG
$$
MIZ016>042-222200-
NORTHERN LOWER MICHIGAN

CITY           SKY/WX    TMP DP  RH WIND       PRES   REMARKS
ALPENA         FOG       40  39  97 E3        29.66R VSB 1/4
BEAVER ISLAND  CLOUDY    40  39  97 CALM      29.65R
BELLAIRE       CLOUDY    40  39  97 CALM      29.65R
CADILLAC       CLOUDY    41  40  95 CALM      29.62R
CHARLEVOIX     CLOUDY    40  40 100 CALM      29.68R
FRANKFORT      CLOUDY    42  40  95 CALM      29.65R FOG
GAYLORD        CLOUDY    44  38  79 CALM      29.63R
GRAYLING       CLOUDY    42  40  93 CALM      29.64R
HARBOR SPRINGS CLOUDY    40  38  95 CALM      29.65R
HOUGHTON LAKE  SUNNY     46  39  76 CALM      29.62S
MANISTEE       CLOUDY    41  40  96 SW3       29.64R FOG
OSCODA         FOG       40  39  97 CALM      29.65R VSB 1/4
PELLSTON       CLOUDY    38  36  92 NE8       29.65R FOG     WCI  32
ROGERS CITY    FOG       37  37  97 CALM      29.66S VSB 1/4
TRAVERSE CITY  CLOUDY    44  38  79 CALM      29.63R
$$
MIZ007>008-015-222200-
EASTERN UPPER MICHIGAN

CITY           SKY/WX    TMP DP  RH WIND       PRES   REMARKS
KINROSS        FOG       36  35  96 E5        29.67R VSB 1/4 WCI  32
MACKINAC ISLAN FOG       35  35 100 E5        29.65R VSB<1/4 WCI  31
NEWBERRY       FOG       36  35  97 CALM      29.64S VSB<1/4
S. S. MARIE    CLOUDY    38  37  97 E6        29.66S FOG     WCI  33
MUNISING         N/A     38  36  92 CALM      29.63R
$$
MIZ004>006-011>014-085-222200-
CENTRAL UPPER MICHIGAN

CITY           SKY/WX    TMP DP  RH WIND       PRES   REMARKS
MANISTIQUE     FOG       36  36  97 CALM      29.63S VSB<1/4
ESCANABA       CLOUDY    38  37  97 CALM      29.63S FOG
SAWYER-GWINN   CLOUDY    36  36 100 CALM      29.62R
$$
MIZ001>003-009>011-084-222200-
WESTERN UPPER MICHIGAN

CITY           SKY/WX    TMP DP  RH WIND       PRES   REMARKS
IRON MOUNTAIN  CLOUDY    37  34  89 N3        29.61R
HOUGHTON       FOG       36  34  92 W6        29.61R VSB<1/4 WCI  31
COPPER HARBOR    N/A     34  34 100 N5        29.62R WCI  30
IRONWOOD       FOG       35  34  96 NW6       29.66S VSB 1   WCI  30
$$

ABBREVIATIONS USED IN REMARKS
   TC - TEMPERATURE IN CELSIUS
  WCI - WIND CHILL INDEX
   HX - HEAT INDEX
  VSB - VISIBILITY




USA.gov is the U.S. government's official web portal to all federal, state and local government web resources and services.